Starlink 33937

operational
NORAD ID: 63704 Int'l Des: 2025-087 Owner: SPXS Country: US Constellation: starlink
LEOCIRCULAR

About Starlink 33937

Description loading...

Live Position

Loading 3D Globe...

Upcoming Passes

Altitude History

Altitude vs Time

uPlot chart will show altitude changes over time

Two-Line Element Set

1 63704U 25087H 25303.84431142 .00044066 00000-0 14894-2 0 9990
2 63704 53.1574 102.3929 0001394 101.2559 258.8598 15.30236675 29322
Epoch: Oct 30, 2025 • Age: 24 hours

Current Status

Altitude 479.4 km
Velocity 7.63 km/s
Sub-Earth Point 48.72°N, 124.55°W
Launch Date Apr 28, 2025
Age 0.5 years
Type internet

Technical Details

Classification Payload
Mass 575.00 kg
Dry Mass 530.00 kg
Total Mass 575.00 kg
Length 0.30 m
Diameter 4.10 m
Span 29.00 m
Shape Box + pan
Manufacturer SPXS
Bus Type Starlink V2MO
Phase Status In Orbit
Owner/State SPXS/US

Large Constellations

Loading constellations...